Location: Unspecified
(0.0000°N, 0.0000°E)
Time: 07:49:11
(UTC+00:00)

Transit 2A Rocket - Pass Details

Date: 12 December 2018
Orbit: 586 x 917 km, 66.7° (Epoch: 16 June)

Event Time Altitude Azimuth Distance (km) Brightness Sun altitude
Rises 18:11:54 0° 8° (N) 3,514 8.1 -4.2°
Reaches altitude 10° 18:15:08 10° 25° (NNE) 2,593 7.3 -4.9°
Maximum altitude 18:19:22 20° 70° (ENE) 1,998 6.5 -5.9°
Drops below altitude 10° 18:23:35 10° 114° (ESE) 2,586 7.3 -6.8°
Sets 18:26:46 0° 131° (SE) 3,501 8.1 -7.6°
